Location: Malvern Link
(52.1333°N, 2.3000°W)
Time: 05:32:18
(UTC+00:00)

Envisat - Pass Details

Date: 29 January 2022
Orbit: 764 x 765 km, 98.2° (Epoch: 25 May)

Event Time Altitude Azimuth Distance (km) Brightness Sun altitude
Rises 04:04:11 0° 23° (NNE) 3,245 6.7 -35.0°
Reaches altitude 10° 04:06:56 10° 37° (NE) 2,313 6.0 -34.6°
Maximum altitude 04:11:02 24° 91° (E) 1,546 5.1 -34.0°
Drops below altitude 10° 04:15:07 10° 145° (SE) 2,300 5.7 -33.4°
Sets 04:17:50 0° 159° (SSE) 3,221 6.3 -33.0°
